TimeAWST,TemperatureF,Dew PointF,Humidity,Sea Level PressureIn,VisibilityMPH,Wind Direction,Wind SpeedMPH,Gust SpeedMPH,PrecipitationIn,Events,Conditions,WindDirDegrees,DateUTC
12:00 AM,87,59,28,29.81,,South,19.6,,,,,170,2012-12-09 16:00:00
12:00 AM,86.0,59.0,40,29.80,6.2,South,19.6,-,N/A,,Unknown,170,2012-12-09 16:00:00
12:30 AM,86.0,60.8,43,29.80,6.2,South,16.1,-,N/A,,Unknown,170,2012-12-09 16:30:00
1:00 AM,86.0,62.6,45,29.77,6.2,SSE,13.8,-,N/A,,Unknown,150,2012-12-09 17:00:00
1:30 AM,86.0,60.8,43,29.77,6.2,SSE,10.4,-,N/A,,Unknown,160,2012-12-09 17:30:00
2:00 AM,86,62,34,29.77,,SSE,10.4,,,,,150,2012-12-09 18:00:00
2:00 AM,86.0,60.8,43,29.77,6.2,SSE,10.4,-,N/A,,Unknown,150,2012-12-09 18:00:00
2:30 AM,86.0,60.8,43,29.74,6.2,South,8.1,-,N/A,,Unknown,180,2012-12-09 18:30:00
3:00 AM,85,60,33,29.76,,South,10.4,,,,,190,2012-12-09 19:00:00
3:00 AM,84.2,60.8,45,29.74,6.2,South,10.4,-,N/A,,Unknown,190,2012-12-09 19:00:00
3:30 AM,84.2,60.8,45,29.77,6.2,South,12.7,-,N/A,,Unknown,190,2012-12-09 19:30:00
4:00 AM,86.0,59.0,40,29.77,6.2,South,11.5,-,N/A,,Unknown,190,2012-12-09 20:00:00
4:30 AM,86.0,59.0,40,29.77,6.2,South,12.7,-,N/A,,Unknown,170,2012-12-09 20:30:00
5:00 AM,85,60,33,29.79,,South,12.7,,,,,170,2012-12-09 21:00:00
5:00 AM,86.0,60.8,43,29.77,6.2,South,12.7,-,N/A,,Unknown,170,2012-12-09 21:00:00
5:30 AM,84.2,60.8,45,29.80,6.2,South,11.5,-,N/A,,Unknown,170,2012-12-09 21:30:00
6:00 AM,85,60,33,29.81,19,South,11.5,,,,Partly Cloudy,170,2012-12-09 22:00:00
6:00 AM,84.2,60.8,45,29.80,6.2,South,11.5,-,N/A,,Scattered Clouds,170,2012-12-09 22:00:00
6:30 AM,87.8,60.8,40,29.83,-9999.0,SSE,11.5,-,N/A,,Clear,150,2012-12-09 22:30:00
7:00 AM,91.4,57.2,31,29.83,-9999.0,SSE,17.3,-,N/A,,Clear,150,2012-12-09 23:00:00
7:30 AM,93.2,57.2,30,29.83,-9999.0,SE,19.6,-,N/A,,Clear,130,2012-12-09 23:30:00
8:00 AM,93,56,19,29.86,,SE,19.6,,,,,140,2012-12-10 00:00:00
8:00 AM,93.2,55.4,28,29.86,-9999.0,SE,19.6,-,N/A,,Clear,140,2012-12-10 00:00:00
8:30 AM,96.8,55.4,25,29.83,-9999.0,SE,19.6,-,N/A,,Clear,130,2012-12-10 00:30:00
9:00 AM,98,54,14,29.84,16,ESE,19.6,,,,Partly Cloudy,120,2012-12-10 01:00:00
9:00 AM,98.6,53.6,22,29.83,-9999.0,ESE,19.6,-,N/A,,Clear,120,2012-12-10 01:00:00
9:30 AM,98.6,53.6,22,29.83,-9999.0,ESE,17.3,-,N/A,,Clear,120,2012-12-10 01:30:00
10:00 AM,100.4,51.8,20,29.83,-9999.0,ESE,17.3,-,N/A,,Clear,110,2012-12-10 02:00:00
10:30 AM,100.4,51.8,20,29.83,-9999.0,ESE,17.3,-,N/A,,Clear,120,2012-12-10 02:30:00
11:00 AM,102,51,11,29.82,,ESE,17.3,,,,,110,2012-12-10 03:00:00
11:00 AM,102.2,51.8,18,29.80,-9999.0,ESE,17.3,-,N/A,,Clear,110,2012-12-10 03:00:00
11:30 AM,104.0,48.2,15,29.80,-9999.0,ESE,15.0,-,N/A,,Clear,110,2012-12-10 03:30:00
12:00 PM,105,48,8,29.79,12,East,15.0,,,,Smoke,100,2012-12-10 04:00:00
12:00 PM,105.8,48.2,14,29.77,-9999.0,East,15.0,-,N/A,,Clear,100,2012-12-10 04:00:00
12:15 PM,107.6,46.4,13,29.77,-9999.0,ENE,17.3,31.1,N/A,,Clear,70,2012-12-10 04:15:00
12:30 PM,105.8,46.4,14,29.77,-9999.0,ENE,12.7,-,N/A,,Clear,70,2012-12-10 04:30:00
1:00 PM,104.0,48.2,15,29.77,-9999.0,ENE,10.4,-,N/A,,Clear,70,2012-12-10 05:00:00
1:07 PM,98.6,62.6,30,29.77,-9999.0,NNE,18.4,29.9,N/A,,Clear,30,2012-12-10 05:07:00
1:30 PM,96.8,66.2,37,29.77,-9999.0,NNE,26.5,-,N/A,,Clear,20,2012-12-10 05:30:00
1:37 PM,96.8,66.2,37,29.77,-9999.0,North,25.3,36.8,N/A,,Clear,10,2012-12-10 05:37:00
2:00 PM,96,65,26,29.79,,NNE,25.3,,,,,20,2012-12-10 06:00:00
2:00 PM,96.8,64.4,34,29.77,-9999.0,NNE,25.3,-,N/A,,Clear,20,2012-12-10 06:00:00
2:30 PM,95.0,66.2,39,29.80,-9999.0,NNE,24.2,-,N/A,,Clear,20,2012-12-10 06:30:00
3:00 PM,94,72,39,29.79,19,NNE,21.9,,,,Partly Cloudy,20,2012-12-10 07:00:00
3:00 PM,95.0,71.6,47,29.77,-9999.0,North,21.9,33.4,N/A,,Clear,10,2012-12-10 07:00:00
3:30 PM,91.4,75.2,59,29.77,6.2,North,19.6,-,N/A,,Unknown,360,2012-12-10 07:30:00
4:00 PM,89.6,77.0,66,29.77,6.2,North,19.6,-,N/A,,Unknown,360,2012-12-10 08:00:00
4:30 PM,89.6,77.0,66,29.77,6.2,North,17.3,-,N/A,,Unknown,10,2012-12-10 08:30:00
5:00 PM,89,77,59,29.77,,North,16.1,,,,,350,2012-12-10 09:00:00
5:00 PM,89.6,77.0,66,29.77,6.2,North,16.1,-,N/A,,Unknown,350,2012-12-10 09:00:00
5:30 PM,87.8,77.0,70,29.77,6.2,North,17.3,-,N/A,,Unknown,350,2012-12-10 09:30:00
6:00 PM,88,75,58,29.77,,NNW,11.5,,,,,340,2012-12-10 10:00:00
6:00 PM,87.8,75.2,66,29.77,6.2,NNW,11.5,-,N/A,,Unknown,340,2012-12-10 10:00:00
6:30 PM,86.0,75.2,70,29.77,6.2,NNW,10.4,-,N/A,,Unknown,340,2012-12-10 10:30:00
7:00 PM,86.0,75.2,70,29.77,6.2,NNW,10.4,-,N/A,,Unknown,330,2012-12-10 11:00:00
7:30 PM,86.0,75.2,70,29.80,6.2,NW,11.5,-,N/A,,Unknown,310,2012-12-10 11:30:00
8:00 PM,85,76,68,29.81,,NW,10.4,,,,,310,2012-12-10 12:00:00
8:00 PM,84.2,77.0,79,29.80,6.2,NW,10.4,-,N/A,,Unknown,310,2012-12-10 12:00:00
8:30 PM,84.2,77.0,79,29.80,6.2,West,10.4,-,N/A,,Unknown,280,2012-12-10 12:30:00
9:00 PM,84,76,72,29.85,,WSW,16.1,,,,,240,2012-12-10 13:00:00
9:00 PM,84.2,77.0,79,29.83,6.2,SW,16.1,-,N/A,,Unknown,230,2012-12-10 13:00:00
9:30 PM,84.2,75.2,74,29.83,6.2,SW,15.0,-,N/A,,Unknown,230,2012-12-10 13:30:00
10:00 PM,84.2,75.2,74,29.83,6.2,SW,17.3,-,N/A,,Unknown,230,2012-12-10 14:00:00
10:30 PM,84.2,73.4,70,29.83,6.2,WSW,10.4,-,N/A,,Unknown,240,2012-12-10 14:30:00
11:00 PM,83,74,66,29.83,,WSW,8.1,,,,,240,2012-12-10 15:00:00
11:00 PM,82.4,73.4,74,29.83,6.2,WSW,8.1,-,N/A,,Unknown,240,2012-12-10 15:00:00
11:30 PM,84.2,71.6,66,29.80,6.2,SW,13.8,-,N/A,,Unknown,230,2012-12-10 15:30:00